Location: Unspecified
(49.9820°N, 20.4363°E)
Time: 06:40:23
(UTC+02:00)

Tiros 1 - All Passes

Search period start: 14 May 2026 00:00
Search period end: 24 May 2026 00:00
Orbit: 618 x 648 km, 48.4° (Epoch: 13 May)

Date Brightness Start Highest point End Pass type
(mag) Time Alt. Az. Time Alt. Az. Time Alt. Az.
14 May - 00:51:02 10° SSW 00:54:58 28° SSE 00:58:54 10° E visible
14 May - 02:31:51 10° WSW 02:36:24 64° SSE 02:40:55 10° E visible
14 May - 04:13:36 10° W 04:18:10 70° S 04:22:42 10° ESE visible
14 May - 05:55:33 10° W 05:59:42 35° SSW 06:03:50 10° SE daylight
14 May - 07:40:16 10° SW 07:40:36 10° SW 07:40:55 10° SW daylight
14 May - 23:32:39 10° S 23:35:09 14° SE 23:37:38 10° ESE visible
15 May - 01:11:51 10° SW 01:16:13 43° SSE 01:20:34 10° E visible
15 May - 02:53:17 10° W 02:57:52 73° S 03:02:25 10° E visible
15 May - 04:35:06 10° W 04:39:36 56° SSW 04:44:03 10° ESE daylight
15 May - 06:17:22 10° W 06:20:53 22° SW 06:24:24 10° SSE daylight
15 May - 23:52:29 10° SSW 23:56:13 25° SSE 23:59:58 10° E visible
16 May - 01:33:03 10° WSW 01:37:35 60° SSE 01:42:06 10° E visible
16 May - 03:14:45 10° W 03:19:20 72° S 03:23:53 10° ESE visible
16 May - 04:56:39 10° W 05:00:56 40° SSW 05:05:11 10° SE daylight
16 May - 06:40:00 10° WSW 06:41:55 13° SW 06:43:51 10° SSW daylight
16 May - 22:34:42 10° SSE 22:36:27 12° SE 22:38:12 10° ESE visible
17 May - 00:13:09 10° SW 00:17:26 38° SSE 00:21:42 10° E visible
17 May - 01:54:26 10° WSW 01:59:01 71° S 02:03:35 10° E visible
17 May - 03:36:15 10° W 03:40:46 61° SSW 03:45:16 10° ESE visible
17 May - 05:18:22 10° W 05:22:09 26° SSW 05:25:54 10° SSE daylight
17 May - 22:53:59 10° SSW 22:57:29 21° SE 23:00:58 10° E visible
18 May - 00:34:15 10° WSW 00:38:46 55° SSE 00:43:15 10° E visible
18 May - 02:15:53 10° W 02:20:29 74° S 02:25:04 10° E visible
18 May - 03:57:46 10° W 04:02:08 45° SSW 04:06:29 10° SE visible
18 May - 05:40:36 10° WSW 05:43:14 15° SW 05:45:51 10° S daylight
18 May - 23:14:28 10° SW 23:18:39 34° SSE 23:22:49 10° E visible
19 May - 00:55:35 10° WSW 01:00:11 69° S 01:04:45 10° E visible
19 May - 02:37:23 10° W 02:41:57 65° S 02:46:28 10° ESE visible
19 May - 04:19:25 10° W 04:23:24 30° SSW 04:27:22 10° SSE daylight
19 May - 21:55:36 10° S 21:58:45 18° SE 22:01:54 10° E visible
19 May - 23:35:28 10° SW 23:39:57 50° SSE 23:44:24 10° E visible
20 May - 01:17:02 10° W 01:21:39 74° S 01:26:13 10° E visible
20 May - 02:58:53 10° W 03:03:20 50° SSW 03:07:45 10° SE visible
20 May - 04:41:24 10° W 04:44:31 18° SW 04:47:37 10° S daylight
20 May - 22:15:51 10° SSW 22:19:53 30° SSE 22:23:54 10° E visible
20 May - 23:56:45 10° WSW 00:01:21 65° SSE 00:05:54 10° E visible
21 May - 01:38:31 10° W 01:43:06 69° S 01:47:39 10° ESE visible
21 May - 03:20:29 10° W 03:24:38 34° SSW 03:28:45 10° SE visible
21 May - 20:57:20 10° S 21:00:01 15° SE 21:02:43 10° ESE daylight
21 May - 22:36:43 10° SW 22:41:08 45° SSE 22:45:32 10° E visible
22 May - 00:18:10 10° W 00:22:48 74° S 00:27:23 10° E visible
22 May - 02:00:01 10° W 02:04:31 55° SSW 02:08:59 10° ESE visible
22 May - 03:42:19 10° W 03:45:48 21° SW 03:49:15 10° SSE visible
22 May - 21:17:16 10° SSW 21:21:07 26° SSE 21:24:56 10° E visible
22 May - 22:57:55 10° WSW 23:02:30 61° SSE 23:07:03 10° E visible
23 May - 00:39:38 10° W 00:44:16 72° S 00:48:50 10° ESE visible
23 May - 02:21:34 10° W 02:25:51 39° SSW 02:30:06 10° SE visible
23 May - 04:05:04 10° WSW 04:06:49 12° SW 04:08:34 10° SSW visible
23 May - 19:59:16 10° SSE 20:01:19 13° SE 20:03:21 10° ESE daylight
23 May - 21:37:59 10° SW 21:42:20 40° SSE 21:46:40 10° E visible
23 May - 23:19:18 10° WSW 23:23:57 72° S 23:28:32 10° E visible
